Impacts TAF Board INFO
FOR SITUATIONAL AWARENESS. NOT TO BE USED FOR FLIGHT PLANNING PURPOSES.
IDs:

KDTW - Detroit Metro/Wayne, MI, US

Issued at 1123 UTC 22 Nov 2017
Updated at 1310 UTC 22 Nov 2017
Potential Impact None Slight Moderate High
Time1253Z 22/14Z 22/15Z 22/16Z 22/17Z 22/18Z 22/19Z 22/20Z 22/21Z 22/22Z 22/23Z 23/00Z 23/01Z 23/02Z>>
Type OBS PRVL PRVL PRVL PRVL PRVL PRVL PRVL PRVL PRVL PRVL PRVL PRVL PRVL
VIS 10 >6 >6 >6 >6 >6 >6 >6 >6 >6 >6 >6 >6 >6
CIG 35 35 35 50 50 50 50 -- -- -- -- -- 250 250
Cover BKN OVC OVC BKN BKN BKN BKN SCT SCT SCT SCT SCT BKN BKN
FltCat VFR VFR VFR VFR VFR VFR VFR VFR VFR VFR VFR VFR VFR VFR
WX -- -- -- -- -- -- -- -- -- -- -- -- -- --
WDir 330 330 330 280 280 280 280 240 240 240 240 240 220 220
WSpd 8 10 10 10 10 10 10 8 8 8 8 8 6 6
WGst -- -- -- -- -- -- -- -- -- -- -- -- -- --

Raw TAF
KDTW 221123Z 2212/2318 33010KT P6SM OVC035
  FM221600 28010KT P6SM BKN050
  FM222000 24008KT P6SM SCT050
  FM230100 22006KT P6SM BKN250


Raw METAR
KDTW 221253Z 33008KT 10SM BKN035 BKN120 M01/M09 A3025 RMK AO2 SLP251 T10111094
KDTW 221153Z 31011KT 9SM OVC035 M01/M08 A3023 RMK AO2 SNE40 SLP242 P0000 60000 70007 T10061078 10017 21006 53028
KDTW 221053Z 34011KT 8SM -SN OVC035 M01/M07 A3020 RMK AO2 SNB49 SLP233 P0000 T10061072

METAR Board
Radar Display
Forecast Discussion

FOR SITUATIONAL AWARENESS. NOT TO BE USED FOR FLIGHT PLANNING PURPOSES.